User: anonymous   Login
Location: Wawayanda State Park
(41.1833°N, 74.4333°W)
Time: 02:34:03
(UTC-04:00)
Language:

RESURS DK-1 - Orbit

View from above orbital plane
View from above orbital plane
View from above satellite
View from above satellite

Ground track
Ground track

The orbit data is extracted from the following two-line orbital elements,

1 29228U 06021A   15110.81109700  .00003174  00000-0  25276-3 0  9996
2 29228 069.9384 302.9015 0001887 141.9273 330.9636 15.01422513489730
Epoch (UTC): 20 April 2015 19:27:58
Eccentricity: 0.0001887
inclination: 69.9384°
perigee height: 561 km
apogee height: 564 km
right ascension of ascending node: 302.9015°
argument of perigee: 141.9273°
revolutions per day: 15.01422513
mean anomaly at epoch: 330.9636°
orbit number at epoch: 48973

The dashed part of the orbit path shows where the satellite is in the earth's shadow,  

DLR